Regional Weather Roundup
Issued by NWS

Home | Current Version | Previous Version | Graphics & Text | Print | Product List | Glossary On
Versions: 1 2 3 4 5 6 7 8 9 10 11 12 13 14 15 16 17 18 19 20 21 22 23 24 25 26 27 28 29 30 31 32 33 34 35 36 37 38 39 40 41 42 43 44 45 46 47 48 49 50
000
ASUS45 KBOU 111410
RWRCO

WEATHER ROUNDUP FOR COLORADO
NATIONAL WEATHER SERVICE DENVER/BOULDER CO
800 AM MDT FRI JUL 11 2014

NOTE: "FAIR" INDICATES FEW OR NO CLOUDS BELOW 12000 FEET WITH NO
SIGNIFICANT WEATHER AND/OR OBSTRUCTIONS TO VISIBILITY.

COZ001>005-013-030-031-111500-
...NORTHWEST COLORADO...

CITY           SKY/WX    TMP DP  RH WIND       PRES   REMARKS
CRAIG          CLOUDY    59  55  87 SE7G18    30.23R
HAYDEN         CLOUDY    59  54  82 E15       30.24F
MEEKER         PTSUNNY   62  55  77 E6        30.23R
MOUNT WERNER   NOT AVBL
STEAMBOAT SPGS CLOUDY    56  54  90 NW6       30.28S
WALDEN         PTSUNNY   55  50  82 E5        30.36S
$$

COZ006>008-011-111500-
...WEST CENTRAL VALLEYS...

CITY           SKY/WX    TMP DP  RH WIND       PRES   REMARKS
GRAND JUNCTION SUNNY     71  59  65 SW3       30.13R
MONTROSE       SUNNY     69  54  58 SE5       30.22R
EAGLE          MOSUNNY   61  57  88 VRB5      30.31S
RIFLE          MOSUNNY   65  59  81 CALM      30.21R
DELTA          SUNNY     74  54  49 NE6       30.19R
NUCLA          SUNNY     70  50  49 E8        30.25R
$$

COZ017>023-064>068-111500-
...SOUTHWEST COLORADO...

CITY           SKY/WX    TMP DP  RH WIND       PRES   REMARKS
DURANGO        PTSUNNY   60  52  74 CALM      30.28R
CORTEZ         SUNNY     69  53  56 N3        30.22R
PAGOSA SPRINGS CLOUDY    64  49  59 CALM      30.35R
TELLURIDE      CLOUDY    59  48  67 CALM      30.43R
WOLF CREEK PAS NOT AVBL
$$

COZ009-010-012-014-032>034-037-058>063-111500-
...CENTRAL COLORADO...

CITY           SKY/WX    TMP DP  RH WIND       PRES   REMARKS
ASPEN          MOSUNNY   58  50  75 SE6       30.35F
BUENA VISTA    SUNNY     64  47  54 NW10G18   30.37R
COPPER MTN     SUNNY     54  41  62 W9        30.65R
BERTHOUD PASS  FAIR      43  30  61 NW21      30.67S
COTTONWOOD PAS SUNNY     63  45  51 CALM      30.49S
GUNNISON       PTSUNNY   55  46  71 CALM      30.40R
KREMMLING      PTSUNNY   61  52  72 SE5       30.35S
LEADVILLE      SUNNY     54  44  69 NE3       30.49S
SALIDA         NOT AVBL
SUNLIGHT       MOSUNNY   54  52  94 CALM      30.56R
WILKERSON PASS SUNNY     55  37  50 NW5       30.62R
$$

COZ069>075-111500-
...SAN LUIS VALLEY/SANGRE DE CRISTO MOUNTAINS...

CITY           SKY/WX    TMP DP  RH WIND       PRES   REMARKS
ALAMOSA        MOSUNNY   63  49  60 CALM      30.33R
LA VETA PASS   MOSUNNY   55  45  67 W6        30.51R
SAGUACHE       SUNNY     64  45  48 NW9       30.36S
$$

COZ035-036-038>040-111500-
...NORTHERN COLORADO FRONT RANGE...

CITY           SKY/WX    TMP DP  RH WIND       PRES   REMARKS
DENVER INTL AP MOSUNNY   72  56  57 W5        30.15R
DMNS CITY PARK   N/A     76  56  51 N1        30.14R
AURORA         MOSUNNY   70  57  64 W2        30.17R
FRONT RANGE AP MOSUNNY   72  59  64 W6        30.16
ERIE MUNI ARPT MOSUNNY   71  59  64 CALM      30.13S
BOULDER MUN AP MOSUNNY   72  55  56 CALM      30.13F
CENTENNIAL     MOSUNNY   71  53  52 CALM      30.17R
BROOMFIELD     NOT AVBL
FORT COLLINS   PTSUNNY   72  57  60 S7        30.14R
LONGMONT       PTSUNNY   75  59  57 NE5       30.14S
$$

COZ041-046-047-076>085-087-088-111500-
...PIKES PEAK/PALMER DIVIDE AND SOUTHERN FOOTHILLS...

CITY           SKY/WX    TMP DP  RH WIND       PRES   REMARKS
COLO. SPRINGS  MOSUNNY   75  51  43 NW10      30.19R
A. F. ACADEMY  SUNNY     71  51  48 N10       30.21R
ELLICOTT       NOT AVBL
FALCON         SUNNY     72  49  43 N12G22    30.24R
FORT CARSON    SUNNY     74  52  46 NW9       30.16R
LIMON          SUNNY     69  59  70 NW17      30.13R
MONUMENT HILL  MOSUNNY   70  48  46 N6        30.24S
TRINIDAD       SUNNY     77  50  38 W13       30.17R
$$

COZ042>045-048>051-090-091-111500-
...NORTHEAST COLORADO...

CITY           SKY/WX    TMP DP  RH WIND       PRES   REMARKS
GREELEY ARPT   NOT AVBL
AKRON          CLOUDY    66  63  90 NW5       30.09R
BURLINGTON     SUNNY     71  61  70 W6        30.04R
WRAY           CLOUDY    72  66  81 E16       30.01S
STERLING       CLOUDY    72  64  78 CALM      30.06R
HOLYOKE        CLOUDY    73  70  88 SE7       30.03R
FORT MORGAN    PTSUNNY   70  59  68 CALM      30.10S
$$

COZ086-089-092>099-111500-
...SOUTHEAST COLORADO...

CITY           SKY/WX    TMP DP  RH WIND       PRES   REMARKS
PUEBLO         SUNNY     76  54  46 W3        30.09R
LA JUNTA       SUNNY     77  54  44 N12       30.03R
LAMAR          SUNNY     85  49  28 SW18      29.98R
SPRINGFIELD      N/A     78  51  38 SW21G29   30.07S
$$


USA.gov is the U.S. government's official web portal to all federal, state and local government web resources and services.